Dewpoint
25 21 19 23 34 31 35 39 37 40 44 44 45 45 49 54 54 54 54 47 47 48 51 54 54 54 54 52 52 52 52 53 53 51 50 51 51 53 53 53 53 52 53 52
21 20 21 23 31 35 40 39 36 39 44 43 41 42 50 53 54 54 55 53 48 48 52 55 55 54 53 52 52 52 52 52 53 54 53 52 52 52 53 53 53 53 52 52
20 20 23 29 36 37 36 34 35 34 44 46 42 39 50 53 54 53 53 53 52 50 51 55 55 55 54 53 53 54 52 52 52 54 55 55 54 53 52 53 53 53 53 53
21 23 22 22 22 32 27 31 37 38 37 34 40 30 41 52 53 53 52 52 53 52 50 53 55 55 55 55 56 56 54 52 52 54 53 52 52 51 52 52 52 53 53 53
20 20 20 20 23 32 32 36 38 41 40 40 41 34 41 51 47 46 50 52 52 53 52 52 54 55 58 58 57 55 54 53 53 54 53 53 51 51 52 53 52 52 52 52
22 23 25 22 30 34 38 39 34 41 39 36 38 37 37 44 40 45 47 48 51 53 54 53 53 56 59 59 58 55 53 53 53 53 53 52 52 51 50 51 51 52 52 51
20 19 22 32 30 31 33 31 29 29 31 32 40 40 36 41 45 46 46 45 48 52 54 53 53 56 59 59 59 55 53 53 53 54 53 53 52 52 51 52 53 51 52 52
17 15 26 33 32 31 37 32 31 28 29 30 40 36 34 42 45 46 49 49 51 52 54 54 55 57 59 60 61 58 53 52 53 53 54 54 53 53 53 53 52 52 52 53
21 19 28 34 36 34 35 33 35 32 34 29 31 37 36 45 45 48 49 49 50 52 55 55 55 58 58 59 62 58 55 53 53 53 53 53 53 53 53 53 51 51 52 53
23 18 26 33 35 38 34 37 29 32 28 29 31 33 33 38 43 48 48 49 51 53 54 54 55 57 59 59 61 57 57 53 53 54 53 53 54 53 52 53 52 52 52 52
28 25 23 34 31 32 35 37 41 36 34 30 32 30 36 40 42 46 49 50 52 55 57 56 56 58 59 60 59 58 56 53 54 54 54 53 53 53 53 52 52 53 53 53
32 29 27 30 33 35 36 35 36 31 31 37 34 33 45 46 46 48 49 52 56 58 58 58 58 60 58 58 58 57 57 54 54 55 55 53 52 53 53 52 53 52 52 53
37 33 30 31 32 32 34 37 40 39 38 37 31 31 47 48 46 48 50 51 52 56 57 58 58 58 59 58 58 57 55 53 54 55 53 52 52 52 52 52 52 53 53 54
44 36 28 26 27 32 31 33 39 36 34 34 35 32 36 46 46 49 49 48 50 52 55 56 57 58 58 58 58 57 54 53 53 52 52 51 51 52 52 52 52 52 53 54
32 26 35 34 35 36 35 34 36 36 36 33 34 35 42 47 47 48 50 48 51 51 53 55 57 57 57 57 57 56 53 52 52 51 51 51 51 51 52 52 52 53 54 55
40 27 37 35 40 38 34 34 37 38 39 39 42 40 48 50 51 51 50 51 50 49 48 50 54 58 58 57 56 55 53 53 52 47 47 47 48 50 52 52 53 53 53 53
40 39 38 31 39 33 27 37 40 42 44 42 38 39 50 49 49 48 48 49 49 50 50 54 53 55 56 56 56 54 53 53 52 49 49 49 49 50 50 51 52 52 52 52
46 44 41 37 34 26 30 44 46 44 46 47 46 47 49 50 51 49 50 49 49 50 53 54 54 54 55 56 54 54 53 52 52 50 50 50 50 50 50 49 49 50 51 51
39 42 38 34 32 34 37 42 42 40 44 53 48 48 48 49 50 47 51 50 49 53 55 55 55 55 55 55 54 53 53 52 51 51 50 50 49 49 49 50 51 52 52 54
43 41 37 38 34 31 37 47 49 46 39 55 52 53 53 52 47 51 52 50 54 56 55 54 55 54 53 53 51 51 53 55 53 52 54 56 56 55 55 54 53 53 53 53
42 41 38 38 35 39 45 49 50 38 42 55 54 55 56 53 53 54 56 52 55 55 55 54 53 53 52 49 55 56 57 57 57 55 54 53 53 54 53 51 51 50 49 49
39 40 42 42 37 35 53 49 41 46 55 55 55 55 55 54 55 55 54 53 55 56 56 55 53 52 52 51 54 55 55 57 54 51 49 48 48 50 50 47 47 47 47 47
37 42 41 43 41 48 54 53 55 56 55 56 55 53 53 51 53 52 51 54 57 57 55 54 53 55 55 55 52 52 54 53 49 46 45 45 45 46 47 46 45 45 45 46
45 50 47 46 46 52 54 57 57 57 57 54 54 55 53 53 53 55 51 53 55 56 53 55 56 53 52 50 48 50 51 50 46 44 43 44 44 42 44 45 46 46 45 45
47 48 48 47 50 51 52 54 56 56 56 55 54 57 57 56 56 55 55 55 56 56 57 57 53 50 48 48 47 46 46 48 44 43 42 41 42 43 42 43 44 44 43 43
51 47 47 43 48 51 51 52 55 56 56 56 56 55 57 57 57 57 57 57 58 57 55 53 50 50 48 47 45 43 44 44 44 44 41 41 41 42 42 42 43 41 41 40
Lifted_Index
1 1 0 1 1 0 0 0 -0 -0 -1 -1 -1 -1 -0 -1 -2 -2 -1 -1 -1 -1 -1 -1 -0 0 0 2 3 6 7 7 7 7 7 7 6 6 6 6 6 7 7 7
1 1 1 1 1 0 0 0 -0 -0 -1 -1 -1 -0 -0 -1 -2 -2 -2 -2 -2 -2 -2 -2 -1 -1 -1 1 2 4 6 7 7 7 7 6 6 5 5 6 6 6 7 7
1 1 1 1 1 0 -0 0 -0 -0 -1 -1 -0 0 -0 -1 -2 -3 -3 -2 -2 -2 -2 -2 -2 -2 -2 -1 1 2 4 6 6 6 6 6 5 5 5 5 5 6 6 6
0 1 1 1 0 -0 -0 -0 -0 -1 -1 -0 -0 0 0 -1 -2 -2 -3 -3 -3 -3 -3 -3 -3 -2 -2 -1 -0 1 2 4 6 6 5 5 5 5 4 5 5 5 5 6
0 1 1 1 0 -0 -0 -0 -1 -1 -0 -0 -0 0 0 -0 -1 -1 -2 -2 -2 -3 -3 -3 -3 -3 -3 -2 -1 0 1 3 5 5 5 5 5 5 5 5 5 5 5 5
1 1 1 1 0 -0 -0 -0 -1 -1 -0 0 0 0 0 0 -0 -0 -1 -1 -1 -2 -2 -2 -3 -3 -3 -2 -1 -0 1 2 4 5 5 5 5 5 5 5 4 4 5 5
1 1 1 1 0 0 0 -0 -0 -0 0 0 0 -0 -0 -0 -0 0 0 -0 -1 -1 -1 -2 -3 -3 -3 -2 -1 -0 0 1 3 5 5 5 5 5 5 5 4 4 4 4
1 0 0 0 1 1 1 0 0 0 0 0 0 -0 -0 -0 -0 -0 -0 -0 -0 -0 -1 -1 -2 -3 -2 -1 -1 -0 -0 1 2 4 5 5 4 4 4 4 4 4 4 4
1 0 0 1 1 1 0 0 0 0 0 0 0 0 0 -0 -0 -1 -0 -0 -0 -0 -0 -1 -2 -2 -2 -1 -1 -1 -1 0 2 3 4 4 4 4 4 4 4 4 4 4
1 1 0 1 1 0 0 -0 -0 0 0 0 0 1 1 0 -0 -1 -1 -1 -0 -0 -0 -1 -1 -2 -1 -1 -1 -1 -1 -0 1 2 3 3 3 3 4 4 4 4 3 3
1 1 1 1 1 0 -0 -0 -0 -0 -0 -0 0 0 0 -0 -1 -1 -1 -0 -0 -0 -0 -1 -1 -1 -1 -1 -1 -1 -1 -1 0 2 2 3 3 3 3 3 3 3 3 2
1 1 1 0 0 -0 -0 -1 -1 -1 -1 -0 -0 -0 -0 -1 -1 -1 -1 -0 -0 -0 -0 -1 -1 -1 -1 -1 -1 -2 -2 -1 -0 1 2 2 2 2 2 3 2 2 2 2
1 0 0 0 -0 -0 -0 -0 -0 -1 -1 -1 -0 -0 -1 -1 -1 -1 -1 -0 0 0 -0 -1 -1 -1 -1 -1 -2 -2 -1 -1 -0 0 1 2 2 2 2 2 2 2 2 2
0 0 0 -0 -0 -0 -0 -0 -0 -0 -1 -1 -0 -1 -1 -1 -1 -1 -1 -0 0 0 -0 -1 -1 -1 -1 -1 -1 -1 -1 -1 -0 0 1 1 1 2 2 2 2 2 1 1
0 0 0 0 -0 0 0 0 -0 -0 -1 -1 -1 -1 -1 -1 -2 -1 -1 -0 0 0 -0 -1 -1 -1 -1 -1 -1 -1 -1 -1 -0 0 1 1 1 2 2 2 2 1 1 1
0 0 0 0 0 0 0 0 -0 -1 -1 -1 -1 -1 -1 -2 -2 -1 -0 -0 0 -0 -1 -1 -1 -1 -1 -1 -1 -1 -1 -1 -0 0 1 1 2 2 2 2 2 2 1 1
0 0 0 0 0 0 0 -0 -1 -1 -1 -1 -1 -1 -1 -1 -1 -1 -0 -0 -0 -1 -1 -1 -1 -1 -1 -1 -1 -1 -1 -0 -0 0 1 2 2 2 2 2 2 2 1 1
0 0 0 1 0 0 0 -0 -1 -1 -1 -1 -1 -1 -1 -1 -1 -0 0 -0 -1 -1 -2 -1 -1 -1 -1 -1 -1 -1 -0 0 1 1 1 2 2 2 2 2 1 1 1 1
1 1 1 1 1 1 0 -0 -1 -1 -1 -1 -1 -1 -1 -1 -0 0 0 -0 -1 -2 -2 -1 -1 -1 -1 -0 -0 0 1 1 1 1 1 1 1 1 1 1 0 1 1 1
0 0 0 0 0 0 -0 -0 -0 -1 -1 -1 -1 -1 -1 -1 -0 -0 -0 -1 -1 -2 -2 -1 -1 -0 -0 0 0 1 1 1 1 1 0 0 0 0 0 1 1 2 2 3
-0 -0 -0 -0 -0 -0 -1 -1 -1 -1 -1 -2 -1 -1 -1 -1 -0 -0 -1 -1 -2 -2 -2 -1 -1 -0 0 1 1 1 1 0 0 -0 -0 -0 1 1 2 3 4 4 4 4
0 -0 -0 -0 -1 -1 -1 -1 -1 -2 -2 -2 -1 -1 -1 -1 -1 -1 -1 -1 -2 -2 -2 -1 -1 -0 0 1 1 1 0 0 0 0 1 2 3 4 5 5 6 5 5 5
-0 -0 -0 -0 -0 -1 -2 -2 -2 -2 -2 -1 -1 -0 -0 -1 -1 -2 -1 -1 -2 -2 -2 -1 -1 -0 0 0 0 0 0 1 2 3 5 5 6 6 7 7 6 6 6 6
-0 -0 -0 -0 -0 -1 -2 -2 -2 -2 -2 -1 -0 -0 -0 -1 -1 -2 -2 -2 -2 -2 -1 -1 -1 -1 -0 -0 0 1 2 4 6 7 7 7 7 7 7 7 6 6 6 6
-1 -0 -0 -0 -0 -1 -2 -2 -2 -2 -1 -1 -0 -1 -1 -2 -2 -2 -2 -2 -2 -2 -1 -1 -1 -1 -0 1 2 3 5 7 8 9 8 8 8 7 7 7 6 6 7 7
-1 -0 -0 -0 -0 -1 -2 -2 -1 -1 -1 -1 -1 -1 -2 -2 -2 -2 -2 -2 -2 -2 -2 -1 -1 -1 -0 2 4 6 7 8 8 9 8 8 8 7 7 7 7 7 7 7